sat.trackr.live / text

‹ back to catalog

HULIANWANG DIGUI-174

NORAD 69577 · 2026-137F

PAYLOAD ACTIVE UNKNOWN

§ Identity

Operator
Country
PRC
Launch date
2026-06-17
Launch site
WSC
Launch vehicle
Mass (kg)
RCS (m²)

External: N2YO · Heavens-Above · Gunter

§ Orbital elements

Epoch: 2026-09-19T23:58:36.554016Z

Period
108.33 min
Inclination
50.0012°
Eccentricity
0.0000285
Mean motion
13.29325327 rev/d
Perigee alt
1,149.1 km
Apogee alt
1,149.5 km
Semi-major
7,527.4 km
B*
8.6313e-5
RAAN
255.7424°
Arg perigee
349.9788°
Mean anomaly
10.1078°
Rev number
1,295

§ Raw data

HULIANWANG DIGUI-1741 69577U 26137F   26262.99903419 -.00000084  00000+0  86313-4 0  99922 69577  50.0012 255.7424 0000285 349.9788  10.1078 13.29325327 12957

JSON: /api/v1/satellites/69577 · /tle

For live sub-satellite position, see the globe view (requires WebGL).

§ Visibility from observer

Set your observer location to see the next 7 days of passes ≥ 10°. The values pass through the URL so the page stays shareable.

No JS? Fill the form by hand. The geolocation button needs JavaScript.